Location: Newark
(49.5647°N, 8.2922°E)
Time: 10:10:14
(UTC+00:00)

Transit 2A - Pass Details

Date: 26 February 2020
Orbit: 597 x 961 km, 66.7° (Epoch: 28 March)

Event Time Altitude Azimuth Distance (km) Brightness Sun altitude
Rises 13:23:29 0° 253° (WSW) 2,837 9.6 27.4°
Reaches altitude 10° 13:26:00 10° 267° (W) 1,951 8.7 27.2°
Maximum altitude 13:29:38 25° 324° (NW) 1,258 7.1 26.9°
Drops below altitude 10° 13:33:27 10° 20° (NNE) 2,055 7.8 26.6°
Sets 13:36:12 0° 34° (NNE) 3,024 8.5 26.3°
